Location: Columbia
(38.9520°N, 92.3340°W)
Time: 22:58:36
(UTC-05:00)

Tiangong 1 - Visible Passes

Search period start: 30 October 2014 00:00
Search period end: 08 November 2014 23:00
Orbit: 347 x 359 km, 42.8° (Epoch: 30 October)

Date Brightness Start Highest point End Pass type
(mag) Time Alt. Az. Time Alt. Az. Time Alt. Az.
30 Oct 1.8 19:05:22 10° WNW 19:08:11 37° N 19:09:46 21° ENE visible
31 Oct 1.1 19:31:47 10° WNW 19:34:42 54° NNE 19:34:56 52° NE visible
01 Nov 2.3 19:58:00 10° WNW 20:00:02 39° W 20:00:02 39° W visible
02 Nov 1.0 17:48:03 10° WNW 17:51:00 61° NNE 17:53:31 13° E visible
02 Nov 4.1 19:24:20 10° W 19:25:05 15° W 19:25:05 15° W visible
03 Nov 1.3 18:14:00 10° WNW 18:16:55 58° SSW 18:18:34 22° SE visible
04 Nov 3.1 18:40:10 10° W 18:42:30 21° SSW 18:43:39 17° S visible
05 Nov 1.9 17:29:26 10° WNW 17:32:18 47° SSW 17:35:09 10° SE visible
06 Nov 3.7 17:55:30 10° W 17:57:33 17° SW 17:59:37 10° S visible
